Location: Budapest
(47.4979°N, 19.0402°E)
Time: 11:28:52
(UTC+02:00)

N. Korean satellite - Pass Details

Date: 12 October 2017
Orbit: 459 x 517 km, 97.2° (Epoch: 16 October)

Event Time Altitude Azimuth Distance (km) Brightness Sun altitude
Rises 19:54:20 0° 213° (SSW) 2,552 10.5 -19.8°
Reaches altitude 10° 19:57:31 10° 245° (WSW) 1,664 10.0 -20.3°
Maximum altitude 19:59:01 12° 270° (W) 1,527 10.2 -20.6°
Drops below altitude 10° 20:00:31 10° 295° (WNW) 1,656 10.4 -20.8°
Sets 20:03:41 0° 327° (NNW) 2,528 10.9 -21.3°
